Preview of NWS' New Version of Forecast
This preview is not operational and should not be used for support decisions.

Regional Weather Roundup (RWR)

Issued by National Weather Service (NWS)

                            
000
ASUS45 KABQ 161010
RWRNM 
NEW MEXICO REGIONAL WEATHER ROUNDUP
NATIONAL WEATHER SERVICE ALBUQUERQUE NM
400 AM MDT SUN JUN 16 2019

NOTE: "FAIR" MEANS FEW OR NO CLOUDS BELOW 12,000 FEET AGL WITH NO
       SIGNIFICANT WEATHER OR OBSTRUCTIONS TO VISION.

      THIS PRODUCT IS RELEASED AS TWO VERSIONS.  ONE VERSION NEAR
      THE TOP OF THE HOUR CONTAINING PRELIMINARY DATA FROM ALBUQUERQUE
      AND OTHER STATIONS.  A FINAL VERSION WITH ADDITIONAL DATA IS 
      ISSUED ABOUT 10 MINUTES AFTER THE HOUR.
 
NMZ501-503-504-510>518-161100-
NORTHWEST PLATEAU/NORTHCENTRAL MOUNTAINS
  
CITY           SKY/WX    TMP DP  RH WIND       PRES   REMARKS
FARMINGTON     FAIR      56  42  59 E8        30.04F                  
LOS ALAMOS       N/A     55  39  55 NW5       30.18S                  
SANTA FE       FAIR      51  46  83 N12       30.12S                  
TAOS           FAIR      46  40  79 NE5       30.20R                  
ANGEL FIRE       N/A     35  33  93 CALM      30.27S                  

$$
NMZ402-403-502-505>509-161100-
WESTCENTRAL MOUNTAINS/SOUTHWEST MOUNTAINS
  
CITY           SKY/WX    TMP DP  RH WIND       PRES   REMARKS
GALLUP         FAIR      49  40  71 CALM      30.13R                  
GRANTS         FAIR      48  32  54 N5        30.16R                  
SILVER CITY    FAIR      61  22  23 NW10      30.05S                  

$$
NMZ407-409-411-412-161100-
SOUTHERN DESERTS
  
CITY           SKY/WX    TMP DP  RH WIND       PRES   REMARKS
DEMING         FAIR      65  22  19 SW6       29.97S                  
LAS CRUCES     FAIR      67  25  20 NW7       29.97S                  
HOLLOMAN AFB   FAIR      69  26  20 SE5       29.95R                  
ALAMOGORDO     FAIR      68  27  21 NW3       29.94S                  
T OR C         FAIR      72  31  22 NW8       29.99S                  

$$
NMZ519>523-161100-
CENTRAL VALLEYS/CENTRAL HIGHLANDS
  
CITY           SKY/WX    TMP DP  RH WIND       PRES   REMARKS
ALBUQUERQUE    MOCLDY    63  46  54 N9        30.06S                  
DOUBLE EAGLE   FAIR      56  41  56 N7        30.09S                  
MORIARTY ARPT  FAIR      48  38  68 NE3       30.14S                  
CLINES CORNERS FAIR      55  35  47 CALM      30.17S                  
BELEN          FAIR      58  39  48 NW3       30.05F                  
SOCORRO        FAIR      64  38  38 CALM      30.03R                  

$$
NMZ524>526-539-540-161100-
SOUTHCENTRAL MOUNTAINS
  
CITY           SKY/WX    TMP DP  RH WIND       PRES   REMARKS
RUIDOSO        FAIR      55  39  54 SW10      30.16S                  

$$
NMZ527>531-161100-
NORTHEAST HIGHLANDS/NORTHEAST PLAINS
  
CITY           SKY/WX    TMP DP  RH WIND       PRES   REMARKS
LAS VEGAS      FAIR      51  39  63 NW3       30.16R                  
RATON          FAIR      52  43  71 N8        30.11S                  
CLAYTON        FAIR      57  50  77 N14       30.04R                  

$$
NMZ532>537-161100-
EASTCENTRAL PLAINS
  
CITY           SKY/WX    TMP DP  RH WIND       PRES   REMARKS
SANTA ROSA     FAIR      61  45  55 NW3       30.04S                  
TUCUMCARI      MOCLDY    64  50  60 N5        29.99R                  
CANNON AFB     MOCLDY    63  49  59 N9        30.01R                  
CLOVIS AIRPORT CLOUDY    63  51  65 N5        30.01F                  

$$
NMZ028-029-538-161100-
SOUTHEAST PLAINS
  
CITY           SKY/WX    TMP DP  RH WIND       PRES   REMARKS
ROSWELL        FAIR      70  44  39 NW7       29.94F                  
ARTESIA        FAIR      66  46  48 NW13      29.96R                  
CARLSBAD       FAIR      68  45  43 N14       29.89R                  


$$